Location: Csohesd
(46.2500°N, 22.6167°E)
Time: 11:14:26
(UTC+00:00)

Cosmos 1605 Rocket - Pass Details

Date: 21 October 2021
Orbit: 945 x 1006 km, 82.9° (Epoch: 06 December)

Event Time Altitude Azimuth Distance (km) Brightness Sun altitude
Rises 17:24:57 0° 186° (S) 3,654 7.0 -20.1°
Reaches altitude 10° 17:27:26 10° 186° (S) 2,719 6.3 -20.5°
Maximum altitude 17:33:41 90° 273° (W) 995 4.0 -21.6°
Drops below altitude 10° 17:40:06 10° 9° (N) 2,777 6.4 -22.7°
Sets 17:42:39 0° 9° (N) 3,736 7.1 -23.2°
